Location: Canazei
(46.4667°N, 11.7667°E)
Time: 04:44:30
(UTC+00:00)

Landsat 4 - Pass Details

Date: 21 April 2021
Orbit: 503 x 522 km, 98.2° (Epoch: 10 May)

Event Time Altitude Azimuth Distance (km) Brightness Sun altitude
Rises 01:30:01 0° 10° (N) 2,615 8.3 -23.9°
Reaches altitude 10° 01:32:08 10° 6° (N) 1,726 7.1 -23.7°
Enters shadow 01:35:05 47° 332° (NNW) 677 4.3 -23.4°
